• In Kazakhstan
  • List of Countries
  • For 7 days
  • Water Temperature
  • Satellite Maps
  • Weather Map
  • News
  • Weather Widgets
  • user-avatar
    Login

    Hourly Weather Bregenz

    Today, 20 June, Thursday

    Time Temperature Precipitation Wind Pressure Humidity
    00:00 +12°C° 1.2 mm 1 mps 646 mmHg 87%
    01:00 +12°C° 0 mm 1 mps 646 mmHg 90%
    02:00 +11°C° 0.3 mm 1 mps 645 mmHg 90%
    03:00 +11°C° 0.3 mm 1 mps 645 mmHg 90%
    04:00 +11°C° 0.3 mm 1 mps 645 mmHg 90%
    05:00 +12°C° 0.2 mm 1 mps 646 mmHg 90%
    06:00 +13°C° 0.2 mm 1 mps 646 mmHg 90%
    07:00 +13°C° 0.2 mm 1 mps 647 mmHg 89%
    08:00 +14°C° 0.7 mm 1 mps 647 mmHg 88%
    09:00 +14°C° 0.7 mm 1 mps 647 mmHg 87%
    10:00 +15°C° 0.7 mm 1 mps 647 mmHg 86%
    11:00 +15°C° 1 mm 1 mps 647 mmHg 85%
    12:00 +16°C° 1 mm 1 mps 647 mmHg 83%
    13:00 +16°C° 1 mm 1 mps 647 mmHg 82%
    14:00 +16°C° 1.1 mm 1 mps 647 mmHg 80%
    15:00 +18°C° 1.1 mm 1 mps 647 mmHg 78%
    16:00 +18°C° 1.1 mm 1 mps 647 mmHg 75%
    17:00 +16°C° 1.1 mm 1 mps 647 mmHg 80%
    18:00 +15°C° 1.1 mm 1 mps 647 mmHg 85%
    19:00 +14°C° 1.1 mm 1 mps 647 mmHg 90%
    20:00 +13°C° 0.7 mm 1 mps 647 mmHg 90%
    21:00 +13°C° 0.7 mm 1 mps 647 mmHg 90%
    22:00 +12°C° 0.7 mm 1 mps 647 mmHg 90%
    23:00 +11°C° 0 mm 1 mps 647 mmHg 91%

    Tomorrow, 21 June, Friday

    Time Temperature Precipitation Wind Pressure Humidity
    00:00 +11°C° 0 mm 1 mps 647 mmHg 91%
    01:00 +10°C° 0 mm 1 mps 647 mmHg 91%
    02:00 +10°C° 0 mm 1 mps 647 mmHg 92%
    03:00 +9°C° 0 mm 0 mps 647 mmHg 92%
    04:00 +8°C° 0 mm 0 mps 646 mmHg 93%
    05:00 +9°C° 0 mm 0 mps 647 mmHg 92%
    06:00 +10°C° 0 mm 0 mps 647 mmHg 91%
    07:00 +11°C° 0 mm 0 mps 648 mmHg 91%
    08:00 +12°C° 0.3 mm 0 mps 648 mmHg 87%
    09:00 +14°C° 0.3 mm 1 mps 649 mmHg 83%
    10:00 +15°C° 0.3 mm 1 mps 649 mmHg 79%
    11:00 +16°C° 0.6 mm 2 mps 649 mmHg 78%
    12:00 +17°C° 0.6 mm 2 mps 649 mmHg 78%
    13:00 +17°C° 0.6 mm 2 mps 649 mmHg 77%
    14:00 +16°C° 1.4 mm 2 mps 649 mmHg 81%
    15:00 +16°C° 1.4 mm 2 mps 648 mmHg 85%
    16:00 +15°C° 1.4 mm 2 mps 648 mmHg 89%
    17:00 +15°C° 2.5 mm 1 mps 648 mmHg 91%
    18:00 +14°C° 2.5 mm 1 mps 648 mmHg 92%
    19:00 +13°C° 2.5 mm 1 mps 648 mmHg 94%
    20:00 +12°C° 0.9 mm 1 mps 648 mmHg 94%
    21:00 +12°C° 0.9 mm 1 mps 648 mmHg 94%
    22:00 +11°C° 0.9 mm 1 mps 648 mmHg 94%
    23:00 +11°C° 0.1 mm 1 mps 648 mmHg 94%

    Day after tomorrow, 22 June, Saturday

    Time Temperature Precipitation Wind Pressure Humidity
    00:00 +11°C° 0.1 mm 1 mps 647 mmHg 94%
    01:00 +10°C° 0.1 mm 1 mps 647 mmHg 94%
    02:00 +10°C° 0 mm 1 mps 647 mmHg 94%
    03:00 +10°C° 0 mm 1 mps 646 mmHg 94%
    04:00 +9°C° 0 mm 1 mps 646 mmHg 94%
    05:00 +10°C° 0.1 mm 1 mps 646 mmHg 94%
    06:00 +10°C° 0.1 mm 1 mps 647 mmHg 94%
    07:00 +11°C° 0.1 mm 1 mps 647 mmHg 93%
    08:00 +11°C° 0.2 mm 1 mps 647 mmHg 93%
    09:00 +12°C° 0.2 mm 1 mps 647 mmHg 92%
    10:00 +12°C° 0.2 mm 1 mps 647 mmHg 92%
    11:00 +12°C° 0.4 mm 1 mps 647 mmHg 91%
    12:00 +12°C° 0.4 mm 1 mps 647 mmHg 91%
    13:00 +13°C° 0.4 mm 1 mps 647 mmHg 90%
    14:00 +13°C° 0.3 mm 1 mps 647 mmHg 87%
    15:00 +14°C° 0.3 mm 1 mps 648 mmHg 83%
    16:00 +14°C° 0.3 mm 1 mps 648 mmHg 80%
    17:00 +14°C° 0.3 mm 1 mps 648 mmHg 83%
    18:00 +13°C° 0.3 mm 1 mps 648 mmHg 87%
    19:00 +13°C° 0.3 mm 1 mps 648 mmHg 90%
    20:00 +12°C° 0 mm 1 mps 648 mmHg 92%
    21:00 +11°C° 0 mm 1 mps 647 mmHg 94%
    22:00 +9°C° 0 mm 0 mps 647 mmHg 95%
    23:00 +9°C° 0 mm 0 mps 647 mmHg 96%

    23 June, Sunday

    Time Temperature Precipitation Wind Pressure Humidity
    00:00 +9°C° 0 mm 0 mps 647 mmHg 96%
    01:00 +8°C° 0 mm 0 mps 647 mmHg 96%
    02:00 +8°C° 0 mm 0 mps 647 mmHg 96%
    03:00 +8°C° 0 mm 0 mps 647 mmHg 96%
    04:00 +9°C° 0 mm 1 mps 647 mmHg 95%
    05:00 +9°C° 0 mm 0 mps 648 mmHg 93%
    06:00 +10°C° 0 mm 0 mps 648 mmHg 92%
    07:00 +11°C° 0 mm 0 mps 648 mmHg 90%
    08:00 +13°C° 0 mm 1 mps 649 mmHg 83%
    09:00 +15°C° 0 mm 1 mps 649 mmHg 75%
    10:00 +16°C° 0 mm 1 mps 650 mmHg 68%
    11:00 +17°C° 0 mm 2 mps 650 mmHg 65%
    12:00 +18°C° 0 mm 2 mps 650 mmHg 63%
    13:00 +19°C° 0 mm 2 mps 650 mmHg 60%
    14:00 +19°C° 0 mm 2 mps 650 mmHg 61%
    15:00 +20°C° 0 mm 2 mps 650 mmHg 61%
    16:00 +20°C° 0 mm 2 mps 650 mmHg 61%
    17:00 +19°C° 0 mm 2 mps 650 mmHg 68%
    18:00 +20°C° 0 mm 1 mps 650 mmHg 75%
    19:00 +19°C° 0 mm 1 mps 650 mmHg 81%
    20:00 +16°C° 0 mm 1 mps 650 mmHg 85%
    21:00 +14°C° 0 mm 1 mps 650 mmHg 89%
    22:00 +13°C° 0 mm 1 mps 650 mmHg 93%
    23:00 +12°C° 0 mm 1 mps 650 mmHg 93%

    24 June, Monday

    Time Temperature Precipitation Wind Pressure Humidity
    00:00 +12°C° 0 mm 1 mps 650 mmHg 93%
    01:00 +12°C° 0 mm 1 mps 650 mmHg 93%
    02:00 +12°C° 0 mm 1 mps 650 mmHg 93%
    03:00 +11°C° 0 mm 1 mps 650 mmHg 93%
    04:00 +11°C° 0 mm 1 mps 650 mmHg 93%
    05:00 +13°C° 0 mm 1 mps 650 mmHg 89%
    06:00 +14°C° 0 mm 1 mps 651 mmHg 85%
    07:00 +16°C° 0 mm 1 mps 651 mmHg 81%
    08:00 +18°C° 0 mm 1 mps 652 mmHg 75%
    09:00 +20°C° 0 mm 1 mps 652 mmHg 68%
    10:00 +22°C° 0 mm 1 mps 653 mmHg 61%
    11:00 +23°C° 0 mm 1 mps 653 mmHg 58%
    12:00 +24°C° 0 mm 1 mps 653 mmHg 54%
    13:00 +25°C° 0 mm 2 mps 654 mmHg 50%
    14:00 +25°C° 0 mm 2 mps 654 mmHg 50%
    15:00 +25°C° 0 mm 2 mps 654 mmHg 51%
    16:00 +25°C° 0 mm 2 mps 654 mmHg 51%
    17:00 +24°C° 0 mm 1 mps 653 mmHg 60%
    18:00 +23°C° 0 mm 1 mps 653 mmHg 68%
    19:00 +21°C° 0 mm 1 mps 653 mmHg 77%
    20:00 +20°C° 0 mm 1 mps 653 mmHg 79%
    21:00 +18°C° 0 mm 1 mps 652 mmHg 81%
    22:00 +15°C° 0 mm 1 mps 652 mmHg 82%
    23:00 +15°C° 0 mm 1 mps 652 mmHg 81%

    25 June, Tuesday

    Time Temperature Precipitation Wind Pressure Humidity
    00:00 +15°C° 0 mm 1 mps 652 mmHg 80%
    01:00 +14°C° 0 mm 1 mps 652 mmHg 79%
    02:00 +14°C° 0 mm 1 mps 652 mmHg 78%
    03:00 +14°C° 0 mm 1 mps 652 mmHg 77%
    04:00 +14°C° 0 mm 1 mps 651 mmHg 76%
    05:00 +15°C° 0 mm 1 mps 652 mmHg 74%
    06:00 +16°C° 0 mm 1 mps 653 mmHg 72%
    07:00 +19°C° 0 mm 1 mps 653 mmHg 70%
    08:00 +21°C° 0 mm 1 mps 654 mmHg 65%
    09:00 +23°C° 0 mm 1 mps 654 mmHg 59%
    10:00 +25°C° 0 mm 1 mps 655 mmHg 53%
    11:00 +26°C° 0 mm 1 mps 655 mmHg 51%
    12:00 +27°C° 0 mm 1 mps 656 mmHg 49%
    13:00 +28°C° 0 mm 2 mps 656 mmHg 46%
    14:00 +28°C° 0 mm 2 mps 656 mmHg 47%
    15:00 +28°C° 0 mm 1 mps 656 mmHg 47%
    16:00 +28°C° 0 mm 1 mps 656 mmHg 47%
    17:00 +26°C° 0 mm 1 mps 656 mmHg 57%
    18:00 +25°C° 0 mm 1 mps 656 mmHg 67%
    19:00 +24°C° 0 mm 1 mps 655 mmHg 78%
    20:00 +22°C° 0 mm 1 mps 655 mmHg 80%
    21:00 +20°C° 0 mm 1 mps 655 mmHg 82%
    22:00 +18°C° 0 mm 1 mps 655 mmHg 84%
    23:00 +18°C° 0 mm 1 mps 655 mmHg 81%
    Show more